| time (UTC) | temp C | wind direction | speed KPH | gust KPH | rain 1hr cm | rain 24hr cm | rain mn cm | humidity % | barometer mb |
| 20260505171504 | 25 | 255 | 9.7 | 27.4 | 0.00 | 0.08 | 0.08 | 41 | 1008.5 |
| 20260505171402 | 26 | 243 | 8.0 | 22.5 | 0.00 | 0.08 | 0.08 | 46 | 1009.0 |
| 20260505170846 | 26 | 188 | 8.0 | 27.4 | 0.00 | 0.08 | 0.08 | 45 | 1009.1 |
| 20260505170353 | 25 | 203 | 8.0 | 27.4 | 0.00 | 0.08 | 0.08 | 43 | 1009.0 |
| 20260505170114 | 25 | 150 | 9.7 | 27.4 | 0.00 | 0.08 | 0.08 | 44 | 1008.6 |
| 20260505165837 | 25 | 195 | 526.3 | 526.3 | 0.00 | 0.00 | 0.08 | 42 | 1009.0 |
| 20260505165345 | 25 | 313 | 8.0 | 30.6 | 0.00 | 0.08 | 0.08 | 43 | 1009.3 |
| 20260505164909 | 25 | 256 | 6.4 | 30.6 | 0.00 | 0.08 | 0.08 | 43 | 1009.3 |
| 20260505164615 | 25 | 185 | 8.0 | 29.0 | 0.00 | 0.08 | 0.08 | 44 | 1008.8 |
| 20260505164340 | 25 | 183 | 6.4 | 20.9 | 0.00 | 0.08 | 0.08 | 46 | 1009.3 |
| 20260505163846 | 25 | 172 | 6.4 | 17.7 | 0.00 | 0.08 | 0.08 | 47 | 1009.4 |
| 20260505163121 | 25 | 194 | 6.4 | 29.0 | 0.00 | 0.08 | 0.08 | 47 | 1009.0 |
| 20260505162844 | 25 | 185 | 11.3 | 29.0 | 0.00 | 0.08 | 0.08 | 48 | 1009.6 |
| 20260505162352 | 25 | 260 | 6.4 | 19.3 | 0.00 | 0.08 | 0.08 | 50 | 1009.7 |
| 20260505161913 | 24 | 239 | 4.8 | 20.9 | 0.00 | 0.08 | 0.08 | 51 | 1009.8 |
| 20260505161623 | 24 | 208 | 4.8 | 20.9 | 0.00 | 0.08 | 0.08 | 51 | 1009.2 |
| 20260505161339 | 24 | 224 | 3.2 | 20.9 | 0.00 | 0.08 | 0.08 | 50 | 1009.7 |
| 20260505160905 | 24 | 239 | 9.7 | 17.7 | 0.00 | 0.08 | 0.08 | 51 | 1009.8 |
| 20260505160352 | 24 | 166 | 6.4 | 17.7 | 0.00 | 0.08 | 0.08 | 51 | 1009.8 |
| 20260505160107 | 23 | 250 | 4.8 | 19.3 | 0.00 | 0.08 | 0.08 | 50 | 1009.2 |
| 20260505153347 | 23 | 202 | 4.8 | 12.9 | 0.00 | 0.08 | 0.08 | 52 | 1009.9 |
| 20260505153108 | 22 | 215 | 6.4 | 12.9 | 0.00 | 0.08 | 0.08 | 52 | 1009.6 |
| 20260505152909 | 23 | 231 | 3.2 | 12.9 | 0.00 | 0.08 | 0.08 | 55 | 1010.1 |
| 20260505152356 | 22 | 171 | 6.4 | 17.7 | 0.00 | 0.08 | 0.08 | 52 | 1010.1 |
| 20260505151855 | 22 | 251 | 6.4 | 17.7 | 0.00 | 0.08 | 0.08 | 54 | 1010.2 |
| 20260505151505 | 22 | 214 | 4.8 | 17.7 | 0.00 | 0.08 | 0.08 | 56 | 1009.8 |
| 20260505151343 | 22 | 221 | 9.7 | 17.7 | 0.00 | 0.08 | 0.08 | 55 | 1010.3 |
| 20260505150847 | 22 | 196 | 6.4 | 16.1 | 0.00 | 0.08 | 0.08 | 55 | 1010.3 |
| 20260505150355 | 22 | 254 | 4.8 | 22.5 | 0.00 | 0.08 | 0.08 | 57 | 1010.3 |
| 20260505150115 | 22 | 208 | 6.4 | 22.5 | 0.00 | 0.08 | 0.08 | 54 | 1009.8 |
| 20260505140351 | 20 | 189 | 6.4 | 14.5 | 0.00 | 0.08 | 0.08 | 61 | 1010.7 |
| 20260505140124 | 20 | 197 | 4.8 | 16.1 | 0.00 | 0.08 | 0.08 | 62 | 1010.3 |
| 20260505130109 | 17 | 212 | 3.2 | 12.9 | 0.00 | 0.08 | 0.08 | 69 | 1010.8 |
| 20260505124849 | 17 | 249 | 4.8 | 11.3 | 0.00 | 0.08 | 0.08 | 71 | 1011.0 |
| 20260505124616 | 17 | 243 | 3.2 | 12.9 | 0.00 | 0.08 | 0.08 | 72 | 1010.6 |
| 20260505124337 | 17 | 181 | 3.2 | 12.9 | 0.00 | 0.08 | 0.08 | 74 | 1011.0 |
| 20260505123844 | 17 | 208 | 4.8 | 12.9 | 0.00 | 0.08 | 0.08 | 74 | 1010.9 |
| 20260505123351 | 17 | 220 | 1.6 | 8.0 | 0.00 | 0.08 | 0.08 | 75 | 1010.8 |
| 20260505123106 | 16 | 180 | 3.2 | 11.3 | 0.00 | 0.08 | 0.08 | 74 | 1010.4 |
| 20260505122852 | 16 | 195 | 1.6 | 11.3 | 0.00 | 0.08 | 0.08 | 76 | 1010.7 |
| 20260505122337 | 16 | 226 | 3.2 | 11.3 | 0.00 | 0.08 | 0.08 | 76 | 1010.6 |
| 20260505121845 | 16 | 178 | 3.2 | 11.3 | 0.00 | 0.08 | 0.08 | 76 | 1010.6 |
| 20260505121608 | 16 | 188 | 3.2 | 11.3 | 0.00 | 0.08 | 0.08 | 77 | 1010.3 |
| 20260505121414 | 16 | 248 | 4.8 | 9.7 | 0.00 | 0.08 | 0.08 | 76 | 1010.7 |
| 20260505120418 | 16 | 242 | 1.6 | 8.0 | 0.00 | 0.08 | 0.08 | 77 | 1010.6 |
| 20260505120112 | 15 | 197 | 1.6 | 8.0 | 0.00 | 0.08 | 0.08 | 77 | 1010.2 |
| 20260505115838 | 16 | 205 | 1.6 | 8.0 | 0.00 | 0.08 | 0.08 | 77 | 1010.6 |
| 20260505115348 | 15 | 198 | 1.6 | 6.4 | 0.00 | 0.08 | 0.08 | 79 | 1010.6 |
| 20260505114849 | 15 | 185 | 1.6 | 6.4 | 0.00 | 0.08 | 0.08 | 80 | 1010.7 |
| 20260505114611 | 15 | 160 | 1.6 | 4.8 | 0.00 | 0.08 | 0.08 | 80 | 1010.3 |
| 20260505114358 | 15 | 174 | 1.6 | 4.8 | 0.00 | 0.08 | 0.08 | 81 | 1010.6 |
| 20260505113918 | 14 | 274 | 1.6 | 3.2 | 0.00 | 0.08 | 0.08 | 83 | 1010.7 |
| 20260505113344 | 14 | 170 | 0.0 | 3.2 | 0.00 | 0.08 | 0.08 | 86 | 1010.4 |
| 20260505113123 | 13 | 175 | 0.0 | 3.2 | 0.00 | 0.08 | 0.08 | 86 | 1010.1 |
| 20260505112847 | 13 | 163 | 0.0 | 3.2 | 0.00 | 0.08 | 0.08 | 88 | 1010.3 |
| 20260505112336 | 13 | 187 | 0.0 | 3.2 | 0.00 | 0.08 | 0.08 | 92 | 1010.5 |
| 20260505111845 | 13 | 220 | 0.0 | 0.0 | 0.00 | 0.08 | 0.08 | 93 | 1010.5 |
| 20260505111615 | 12 | 334 | 0.0 | 0.0 | 0.00 | 0.08 | 0.08 | 94 | 1010.1 |
| 20260505111355 | 12 | 334 | 0.0 | 1.6 | 0.00 | 0.08 | 0.08 | 95 | 1010.3 |
| 20260505110839 | 12 | 334 | 0.0 | 1.6 | 0.00 | 0.08 | 0.08 | 96 | 1010.2 |
| 20260505110406 | 11 | 334 | 0.0 | 1.6 | 0.00 | 0.08 | 0.08 | 97 | 1010.2 |
| 20260505110106 | 11 | 334 | 0.0 | 0.0 | 0.00 | 0.08 | 0.08 | 97 | 1009.9 |
| 20260505101853 | 10 | 270 | 0.0 | 0.0 | 0.00 | 0.08 | 0.08 | 95 | 1010.0 |
| 20260505101614 | 10 | 270 | 0.0 | 0.0 | 0.00 | 0.08 | 0.08 | 95 | 1009.6 |
| 20260505101335 | 10 | 270 | 0.0 | 1.6 | 0.00 | 0.08 | 0.08 | 95 | 1010.1 |
| 20260505100119 | 10 | 270 | 0.0 | 0.0 | 0.00 | 0.08 | 0.08 | 95 | 1009.7 |
| 20260505095844 | 10 | 270 | 0.0 | 0.0 | 0.00 | 0.08 | 0.08 | 95 | 1010.1 |
| 20260505095409 | 11 | 270 | 0.0 | 1.6 | 0.00 | 0.08 | 0.08 | 94 | 1010.0 |
| 20260505094854 | 11 | 270 | 0.0 | 3.2 | 0.00 | 0.08 | 0.08 | 94 | 1010.0 |
| 20260505094618 | 10 | 270 | 0.0 | 3.2 | 0.00 | 0.08 | 0.08 | 94 | 1009.7 |
| 20260505094342 | 11 | 270 | 0.0 | 3.2 | 0.00 | 0.08 | 0.08 | 94 | 1010.0 |
| 20260505093846 | 11 | 270 | 0.0 | 3.2 | 0.00 | 0.08 | 0.08 | 94 | 1010.0 |
| 20260505093356 | 11 | 333 | 0.0 | 3.2 | 0.00 | 0.08 | 0.08 | 94 | 1010.0 |
| 20260505093111 | 11 | 342 | 0.0 | 3.2 | 0.00 | 0.08 | 0.08 | 93 | 1009.7 |
| 20260505092856 | 11 | 342 | 0.0 | 3.2 | 0.00 | 0.08 | 0.08 | 93 | 1009.9 |
| 20260505092344 | 11 | 342 | 0.0 | 0.0 | 0.00 | 0.08 | 0.08 | 93 | 1009.8 |
| 20260505091849 | 11 | 342 | 0.0 | 0.0 | 0.00 | 0.08 | 0.08 | 93 | 1009.8 |
| 20260505091620 | 11 | 342 | 0.0 | 0.0 | 0.03 | 0.08 | 0.08 | 93 | 1009.5 |
| 20260505091356 | 11 | 342 | 0.0 | 3.2 | 0.03 | 0.08 | 0.08 | 93 | 1009.8 |
| 20260505090917 | 12 | 342 | 0.0 | 3.2 | 0.03 | 0.08 | 0.08 | 93 | 1009.9 |
| 20260505090343 | 12 | 342 | 0.0 | 3.2 | 0.08 | 0.08 | 0.08 | 92 | 1009.9 |
| 20260505090121 | 11 | 342 | 0.0 | 3.2 | 0.08 | 0.08 | 0.08 | 92 | 1009.6 |
| 20260505085845 | 12 | 342 | 0.0 | 3.2 | 0.08 | 0.08 | 0.08 | 92 | 1010.0 |
| 20260505085353 | 12 | 342 | 0.0 | 3.2 | 0.08 | 0.08 | 0.08 | 91 | 1010.1 |
| 20260505084854 | 12 | 342 | 1.6 | 3.2 | 0.08 | 0.08 | 0.08 | 90 | 1010.1 |
| 20260505084615 | 12 | 308 | 0.0 | 3.2 | 0.08 | 0.08 | 0.08 | 90 | 1009.7 |
| 20260505084338 | 12 | 308 | 0.0 | 1.6 | 0.08 | 0.08 | 0.08 | 90 | 1010.0 |
| 20260505083843 | 12 | 308 | 0.0 | 3.2 | 0.08 | 0.08 | 0.08 | 89 | 1010.0 |
| 20260505083352 | 12 | 316 | 1.6 | 3.2 | 0.08 | 0.08 | 0.08 | 88 | 1009.9 |
| 20260505083106 | 12 | 308 | 0.0 | 3.2 | 0.08 | 0.08 | 0.08 | 87 | 1009.6 |
| 20260505082850 | 13 | 322 | 3.2 | 3.2 | 0.08 | 0.08 | 0.08 | 86 | 1009.9 |
| 20260505082356 | 13 | 298 | 0.0 | 3.2 | 0.08 | 0.08 | 0.08 | 84 | 1010.0 |
| 20260505081613 | 13 | 298 | 0.0 | 3.2 | 0.05 | 0.05 | 0.05 | 82 | 1009.7 |
| 20260505081357 | 14 | 299 | 1.6 | 6.4 | 0.05 | 0.05 | 0.05 | 78 | 1010.0 |
| 20260505080859 | 15 | 326 | 0.0 | 11.3 | 0.05 | 0.05 | 0.05 | 74 | 1009.9 |
| 20260505080344 | 15 | 312 | 4.8 | 11.3 | 0.00 | 0.00 | 0.00 | 70 | 1010.1 |
| 20260505080120 | 15 | 272 | 4.8 | 11.3 | 0.00 | 0.00 | 0.00 | 70 | 1009.8 |
| 20260505075846 | 15 | 286 | 3.2 | 6.4 | 0.00 | 0.00 | 0.00 | 69 | 1009.9 |
| 20260505075355 | 15 | 235 | 0.0 | 6.4 | 0.00 | 0.00 | 0.00 | 69 | 1009.7 |
| 20260505074840 | 15 | 184 | 1.6 | 11.3 | 0.00 | 0.00 | 0.00 | 69 | 1009.5 |
| 20260505074608 | 15 | 208 | 1.6 | 11.3 | 0.00 | 0.00 | 0.00 | 68 | 1009.1 |
| 20260505074347 | 15 | 157 | 3.2 | 11.3 | 0.00 | 0.00 | 0.00 | 68 | 1009.3 |
| 20260505073851 | 15 | 197 | 3.2 | 6.4 | 0.00 | 0.00 | 0.00 | 67 | 1009.5 |
| 20260505073342 | 15 | 181 | 1.6 | 6.4 | 0.00 | 0.00 | 0.00 | 67 | 1009.4 |
| 20260505073123 | 15 | 150 | 1.6 | 8.0 | 0.00 | 0.00 | 0.00 | 68 | 1009.1 |
| 20260505072844 | 15 | 196 | 3.2 | 11.3 | 0.00 | 0.00 | 0.00 | 67 | 1009.5 |
| 20260505072353 | 15 | 195 | 3.2 | 11.3 | 0.00 | 0.00 | 0.00 | 67 | 1009.5 |
| 20260505071837 | 15 | 213 | 3.2 | 11.3 | 0.00 | 0.00 | 0.00 | 67 | 1009.7 |
| 20260505071625 | 15 | 187 | 3.2 | 11.3 | 0.00 | 0.00 | 0.00 | 67 | 1009.3 |
| 20260505071345 | 15 | 228 | 3.2 | 11.3 | 0.00 | 0.00 | 0.00 | 67 | 1009.6 |
| 20260505070848 | 15 | 212 | 3.2 | 8.0 | 0.00 | 0.00 | 0.00 | 64 | 1009.6 |
| 20260505070358 | 15 | 193 | 1.6 | 8.0 | 0.00 | 0.00 | 0.00 | 64 | 1009.7 |
| 20260505070115 | 15 | 177 | 1.6 | 8.0 | 0.00 | 0.00 | 0.00 | 65 | 1009.3 |
| 20260505065857 | 15 | 175 | 1.6 | 6.4 | 0.00 | 0.00 | 0.00 | 64 | 1009.5 |
| 20260505065342 | 15 | 208 | 0.0 | 6.4 | 0.00 | 0.00 | 0.00 | 64 | 1009.6 |
| 20260505064849 | 15 | 231 | 1.6 | 6.4 | 0.00 | 0.00 | 0.00 | 64 | 1009.6 |
| 20260505064616 | 15 | 215 | 0.0 | 6.4 | 0.00 | 0.00 | 0.00 | 63 | 1009.3 |
| 20260505064336 | 15 | 231 | 1.6 | 6.4 | 0.00 | 0.00 | 0.00 | 63 | 1009.7 |
| 20260505063845 | 15 | 192 | 3.2 | 4.8 | 0.00 | 0.00 | 0.00 | 62 | 1009.7 |
| 20260505063416 | 15 | 189 | 1.6 | 4.8 | 0.00 | 0.00 | 0.00 | 62 | 1009.7 |
| 20260505063140 | 15 | 169 | 0.0 | 4.8 | 0.00 | 0.00 | 0.00 | 62 | 1009.4 |
| 20260505062836 | 15 | 189 | 1.6 | 4.8 | 0.00 | 0.00 | 0.00 | 62 | 1009.7 |
| 20260505062346 | 15 | 199 | 1.6 | 6.4 | 0.00 | 0.00 | 0.00 | 61 | 1009.7 |
| 20260505061914 | 15 | 210 | 1.6 | 6.4 | 0.00 | 0.00 | 0.00 | 61 | 1009.7 |
| 20260505061640 | 15 | 191 | 1.6 | 8.0 | 0.00 | 0.00 | 0.00 | 61 | 1009.4 |
| 20260505061342 | 15 | 222 | 1.6 | 8.0 | 0.00 | 0.00 | 0.00 | 61 | 1009.7 |
| 20260505060848 | 15 | 197 | 3.2 | 8.0 | 0.00 | 0.00 | 0.00 | 60 | 1009.8 |
| 20260505060357 | 16 | 168 | 1.6 | 8.0 | 0.00 | 0.00 | 0.00 | 60 | 1009.8 |
| 20260505060114 | 15 | 169 | 1.6 | 8.0 | 0.00 | 0.00 | 0.00 | 60 | 1009.5 |
| 20260505055854 | 16 | 220 | 1.6 | 8.0 | 0.00 | 0.00 | 0.00 | 60 | 1009.7 |
| 20260505055402 | 16 | 188 | 3.2 | 8.0 | 0.00 | 0.00 | 0.00 | 59 | 1009.8 |
| 20260505054621 | 15 | 206 | 3.2 | 9.7 | 0.00 | 0.00 | 0.00 | 59 | 1009.4 |
| 20260505054341 | 16 | 214 | 0.0 | 8.0 | 0.00 | 0.00 | 0.00 | 59 | 1009.7 |
| 20260505053408 | 16 | 219 | 1.6 | 4.8 | 0.00 | 0.00 | 0.00 | 59 | 1009.8 |
| 20260505053110 | 15 | 197 | 0.0 | 4.8 | 0.00 | 0.00 | 0.00 | 59 | 1009.6 |
| 20260505052852 | 16 | 249 | 1.6 | 4.8 | 0.00 | 0.00 | 0.00 | 59 | 1009.8 |
| 20260505052341 | 16 | 224 | 0.0 | 4.8 | 0.00 | 0.00 | 0.00 | 59 | 1009.7 |
| 20260505051848 | 16 | 226 | 0.0 | 8.0 | 0.00 | 0.00 | 0.00 | 58 | 1009.8 |
| 20260505051618 | 15 | 237 | 0.0 | 8.0 | 0.00 | 0.00 | 0.00 | 58 | 1009.5 |
| 20260505051357 | 16 | 210 | 0.0 | 8.0 | 0.00 | 0.00 | 0.00 | 58 | 1009.8 |
| 20260505050843 | 16 | 209 | 0.0 | 4.8 | 0.00 | 0.00 | 0.00 | 58 | 1009.7 |
| 20260505050353 | 16 | 250 | 0.0 | 4.8 | 0.00 | 0.00 | 0.00 | 58 | 1009.8 |
| 20260505050116 | 16 | 241 | 1.6 | 4.8 | 0.00 | 0.00 | 0.00 | 58 | 1009.5 |
| 20260505041620 | 16 | 218 | 0.0 | 9.7 | 0.00 | 0.00 | 0.00 | 56 | 1009.4 |
| 20260505041345 | 16 | 189 | 0.0 | 9.7 | 0.00 | 0.00 | 0.00 | 56 | 1009.7 |
| 20260505040912 | 16 | 213 | 1.6 | 8.0 | 0.00 | 0.00 | 0.00 | 56 | 1009.7 |
| 20260505040340 | 16 | 181 | 1.6 | 6.4 | 0.00 | 0.00 | 0.00 | 56 | 1009.6 |
| 20260505040118 | 16 | 200 | 0.0 | 6.4 | 0.00 | 0.00 | 0.00 | 56 | 1009.3 |
| 20260505035844 | 16 | 195 | 1.6 | 6.4 | 0.00 | 0.00 | 0.00 | 57 | 1009.6 |
| 20260505035352 | 16 | 199 | 0.0 | 4.8 | 0.00 | 0.00 | 0.00 | 57 | 1009.5 |
| 20260505034838 | 15 | 209 | 0.0 | 4.8 | 0.00 | 0.00 | 0.00 | 57 | 1009.5 |
| 20260505034513 | 15 | 210 | 0.0 | 4.8 | 0.00 | 0.00 | 0.00 | 58 | 1009.1 |
| 20260505034409 | 16 | 202 | 0.0 | 0.0 | 0.00 | 0.00 | 0.00 | 58 | 1009.4 |
| 20260505033916 | 16 | 202 | 0.0 | 0.0 | 0.00 | 0.00 | 0.00 | 57 | 1009.4 |
| 20260505033106 | 16 | 217 | 0.0 | 3.2 | 0.00 | 0.00 | 0.00 | 56 | 1009.2 |
| 20260505032848 | 16 | 229 | 0.0 | 3.2 | 0.00 | 0.00 | 0.00 | 56 | 1009.5 |
| 20260505032350 | 16 | 246 | 0.0 | 3.2 | 0.00 | 0.00 | 0.00 | 56 | 1009.5 |
| 20260505031836 | 16 | 208 | 526.3 | 526.3 | 0.00 | 0.00 | 0.00 | 54 | 1009.4 |
| 20260505031606 | 16 | 222 | 0.0 | 4.8 | 0.00 | 0.00 | 0.00 | 54 | 1009.3 |
| 20260505031347 | 16 | 198 | 0.0 | 4.8 | 0.00 | 0.00 | 0.00 | 54 | 1009.5 |
| 20260505030852 | 16 | 199 | 1.6 | 4.8 | 0.00 | 0.00 | 0.00 | 54 | 1009.5 |
| 20260505030401 | 16 | 195 | 1.6 | 3.2 | 0.00 | 0.00 | 0.00 | 54 | 1009.6 |
| 20260505030122 | 16 | 206 | 0.0 | 4.8 | 0.00 | 0.00 | 0.00 | 54 | 1009.3 |
| 20260505025843 | 16 | 210 | 0.0 | 4.8 | 0.00 | 0.00 | 0.00 | 54 | 1009.6 |
| 20260505025347 | 16 | 214 | 0.0 | 6.4 | 0.00 | 0.00 | 0.00 | 53 | 1009.7 |
| 20260505024852 | 16 | 202 | 1.6 | 6.4 | 0.00 | 0.00 | 0.00 | 53 | 1009.6 |
| 20260505024620 | 16 | 193 | 0.0 | 8.0 | 0.00 | 0.00 | 0.00 | 53 | 1009.4 |
| 20260505024342 | 16 | 183 | 0.0 | 8.0 | 0.00 | 0.00 | 0.00 | 53 | 1009.7 |
| 20260505023846 | 17 | 208 | 0.0 | 3.2 | 0.00 | 0.00 | 0.00 | 52 | 1009.6 |
| 20260505023339 | 17 | 248 | 0.0 | 4.8 | 0.00 | 0.00 | 0.00 | 52 | 1009.6 |
| 20260505023118 | 16 | 193 | 0.0 | 6.4 | 0.00 | 0.00 | 0.00 | 52 | 1009.4 |
| 20260505022844 | 17 | 189 | 1.6 | 6.4 | 0.00 | 0.00 | 0.00 | 51 | 1009.7 |
| 20260505022406 | 17 | 168 | 3.2 | 6.4 | 0.00 | 0.00 | 0.00 | 51 | 1009.8 |
| 20260505021847 | 17 | 191 | 0.0 | 8.0 | 0.00 | 0.00 | 0.00 | 52 | 1009.8 |
| 20260505021610 | 16 | 170 | 0.0 | 8.0 | 0.00 | 0.00 | 0.00 | 51 | 1009.6 |
| 20260505021411 | 17 | 168 | 1.6 | 8.0 | 0.00 | 0.00 | 0.00 | 51 | 1009.9 |
| 20260505020914 | 17 | 213 | 1.6 | 6.4 | 0.00 | 0.00 | 0.00 | 51 | 1009.9 |
| 20260505020341 | 17 | 206 | 1.6 | 4.8 | 0.00 | 0.00 | 0.00 | 51 | 1009.9 |
| 20260505020114 | 17 | 185 | 0.0 | 4.8 | 0.00 | 0.00 | 0.00 | 50 | 1009.7 |
| 20260505015855 | 17 | 184 | 1.6 | 4.8 | 0.00 | 0.00 | 0.00 | 50 | 1009.9 |
| 20260505015345 | 17 | 244 | 1.6 | 8.0 | 0.00 | 0.00 | 0.00 | 50 | 1009.9 |
| 20260505014848 | 17 | 196 | 3.2 | 8.0 | 0.00 | 0.00 | 0.00 | 50 | 1009.9 |
| 20260505014611 | 17 | 192 | 1.6 | 8.0 | 0.00 | 0.00 | 0.00 | 50 | 1009.7 |
| 20260505014352 | 17 | 197 | 1.6 | 6.4 | 0.00 | 0.00 | 0.00 | 50 | 1009.9 |
| 20260505013854 | 17 | 199 | 1.6 | 6.4 | 0.00 | 0.00 | 0.00 | 50 | 1009.8 |
| 20260505013344 | 17 | 201 | 1.6 | 8.0 | 0.00 | 0.00 | 0.00 | 49 | 1009.8 |
| 20260505013118 | 17 | 195 | 0.0 | 9.7 | 0.00 | 0.00 | 0.00 | 49 | 1009.5 |
| 20260505012839 | 17 | 205 | 1.6 | 9.7 | 0.00 | 0.00 | 0.00 | 49 | 1009.8 |
| 20260505012343 | 17 | 197 | 3.2 | 9.7 | 0.00 | 0.00 | 0.00 | 49 | 1009.7 |
| 20260505011855 | 17 | 266 | 1.6 | 9.7 | 0.00 | 0.00 | 0.00 | 49 | 1009.6 |
| 20260505011619 | 17 | 166 | 3.2 | 12.9 | 0.00 | 0.00 | 0.00 | 49 | 1009.4 |
| 20260505011339 | 18 | 203 | 4.8 | 12.9 | 0.00 | 0.00 | 0.00 | 49 | 1009.5 |
| 20260505010843 | 17 | 165 | 4.8 | 12.9 | 0.00 | 0.00 | 0.00 | 49 | 1009.5 |
| 20260505010349 | 17 | 194 | 4.8 | 12.9 | 0.00 | 0.00 | 0.00 | 49 | 1009.5 |
| 20260505010114 | 17 | 152 | 3.2 | 11.3 | 0.00 | 0.00 | 0.00 | 50 | 1009.2 |
| 20260505005844 | 17 | 222 | 1.6 | 9.7 | 0.00 | 0.00 | 0.00 | 49 | 1009.5 |
| 20260505005414 | 17 | 180 | 1.6 | 8.0 | 0.00 | 0.00 | 0.00 | 50 | 1009.4 |
| 20260505004846 | 17 | 216 | 1.6 | 6.4 | 0.00 | 0.00 | 0.00 | 49 | 1009.4 |
| 20260505004608 | 17 | 187 | 3.2 | 6.4 | 0.00 | 0.00 | 0.00 | 49 | 1009.2 |
| 20260505004409 | 17 | 155 | 526.3 | 526.3 | 0.00 | 0.00 | 0.00 | 49 | 1009.2 |
| 20260505003913 | 17 | 189 | 1.6 | 6.4 | 0.00 | 0.00 | 0.00 | 49 | 1009.3 |
| 20260505003343 | 18 | 156 | 3.2 | 6.4 | 0.00 | 0.00 | 0.00 | 49 | 1009.3 |
| 20260505003007 | 17 | 158 | 1.6 | 6.4 | 0.00 | 0.00 | 0.00 | 49 | 1009.0 |
| 20260505002901 | 18 | 162 | 3.2 | 9.7 | 0.00 | 0.00 | 0.00 | 49 | 1009.3 |
| 20260505002349 | 18 | 222 | 1.6 | 9.7 | 0.00 | 0.00 | 0.00 | 49 | 1009.2 |
| 20260505001914 | 18 | 193 | 3.2 | 9.7 | 0.00 | 0.00 | 0.00 | 48 | 1009.2 |
| 20260505001621 | 18 | 180 | 1.6 | 9.7 | 0.00 | 0.00 | 0.00 | 48 | 1009.0 |
| 20260505001339 | 18 | 194 | 3.2 | 9.7 | 0.00 | 0.00 | 0.00 | 48 | 1009.1 |
| 20260505000902 | 18 | 181 | 3.2 | 8.0 | 0.00 | 0.00 | 0.00 | 47 | 1009.1 |
| 20260505000113 | 18 | 175 | 1.6 | 9.7 | 0.00 | 0.00 | 0.00 | 47 | 1008.9 |
| 20260504235854 | 18 | 203 | 3.2 | 12.9 | 0.00 | 0.00 | 0.00 | 46 | 1009.0 |
| 20260504235343 | 18 | 205 | 4.8 | 19.3 | 0.00 | 0.00 | 0.00 | 46 | 1009.0 |
| 20260504234911 | 19 | 202 | 3.2 | 19.3 | 0.00 | 0.00 | 0.00 | 46 | 1008.9 |
| 20260504234617 | 18 | 213 | 8.0 | 19.3 | 0.00 | 0.00 | 0.00 | 46 | 1008.8 |
| 20260504234338 | 19 | 168 | 6.4 | 14.5 | 0.00 | 0.00 | 0.00 | 46 | 1008.8 |
| 20260504233843 | 19 | 176 | 6.4 | 19.3 | 0.00 | 0.00 | 0.00 | 45 | 1008.9 |
| 20260504233353 | 19 | 153 | 8.0 | 19.3 | 0.00 | 0.00 | 0.00 | 45 | 1008.8 |
| 20260504233110 | 19 | 178 | 6.4 | 19.3 | 0.00 | 0.00 | 0.00 | 45 | 1008.7 |
| 20260504232913 | 20 | 185 | 3.2 | 12.9 | 0.00 | 0.00 | 0.00 | 45 | 1008.8 |
| 20260504232338 | 20 | 158 | 4.8 | 17.7 | 0.00 | 0.00 | 0.00 | 44 | 1008.7 |
| 20260504231840 | 20 | 201 | 6.4 | 24.1 | 0.00 | 0.00 | 0.00 | 44 | 1008.7 |
| 20260504231605 | 20 | 178 | 6.4 | 24.1 | 0.00 | 0.00 | 0.00 | 44 | 1008.5 |
| 20260504231345 | 20 | 202 | 6.4 | 24.1 | 0.00 | 0.00 | 0.00 | 44 | 1008.6 |
| 20260504230851 | 20 | 188 | 6.4 | 17.7 | 0.00 | 0.00 | 0.00 | 43 | 1008.6 |
| 20260504230419 | 20 | 204 | 6.4 | 22.5 | 0.00 | 0.00 | 0.00 | 44 | 1008.6 |
| 20260504230120 | 20 | 223 | 4.8 | 22.5 | 0.00 | 0.00 | 0.00 | 44 | 1008.4 |
| 20260504225842 | 20 | 179 | 6.4 | 22.5 | 0.00 | 0.00 | 0.00 | 43 | 1008.5 |
| 20260504225347 | 20 | 245 | 9.7 | 22.5 | 0.00 | 0.00 | 0.00 | 43 | 1008.5 |
| 20260504224849 | 21 | 218 | 8.0 | 17.7 | 0.00 | 0.00 | 0.00 | 43 | 1008.5 |
| 20260504224419 | 21 | 176 | 6.4 | 14.5 | 0.00 | 0.00 | 0.00 | 43 | 1008.4 |
| 20260504223840 | 21 | 189 | 3.2 | 12.9 | 0.00 | 0.00 | 0.00 | 43 | 1008.4 |
| 20260504223350 | 21 | 220 | 4.8 | 12.9 | 0.00 | 0.00 | 0.00 | 41 | 1008.4 |
| 20260504223112 | 21 | 189 | 1.6 | 12.9 | 0.00 | 0.00 | 0.00 | 41 | 1008.2 |
| 20260504222914 | 21 | 201 | 4.8 | 11.3 | 0.00 | 0.00 | 0.00 | 41 | 1008.4 |
| 20260504222342 | 21 | 185 | 3.2 | 14.5 | 0.00 | 0.00 | 0.00 | 40 | 1008.4 |
| 20260504221848 | 21 | 224 | 1.6 | 14.5 | 0.00 | 0.00 | 0.00 | 40 | 1008.5 |
| 20260504221615 | 21 | 199 | 3.2 | 14.5 | 0.00 | 0.00 | 0.00 | 40 | 1008.3 |
| 20260504221335 | 21 | 193 | 3.2 | 12.9 | 0.00 | 0.00 | 0.00 | 42 | 1008.5 |
| 20260504220844 | 21 | 199 | 4.8 | 16.1 | 0.00 | 0.00 | 0.00 | 41 | 1008.5 |
| 20260504220354 | 21 | 208 | 4.8 | 16.1 | 0.00 | 0.00 | 0.00 | 41 | 1008.6 |
| 20260504220115 | 21 | 156 | 4.8 | 16.1 | 0.00 | 0.00 | 0.00 | 40 | 1008.5 |
| 20260504215917 | 21 | 202 | 4.8 | 16.1 | 0.00 | 0.00 | 0.00 | 41 | 1008.6 |
| 20260504215341 | 21 | 192 | 6.4 | 16.1 | 0.00 | 0.00 | 0.00 | 40 | 1008.6 |
| 20260504214910 | 21 | 206 | 4.8 | 14.5 | 0.00 | 0.00 | 0.00 | 41 | 1008.7 |
| 20260504214617 | 21 | 185 | 6.4 | 14.5 | 0.00 | 0.00 | 0.00 | 40 | 1008.6 |
| 20260504214357 | 21 | 219 | 6.4 | 12.9 | 0.00 | 0.00 | 0.00 | 41 | 1008.7 |
| 20260504213844 | 21 | 265 | 3.2 | 14.5 | 0.00 | 0.00 | 0.00 | 41 | 1008.7 |
| 20260504213355 | 21 | 246 | 3.2 | 16.1 | 0.00 | 0.00 | 0.00 | 42 | 1008.7 |
| 20260504213118 | 21 | 211 | 3.2 | 16.1 | 0.00 | 0.00 | 0.00 | 41 | 1008.6 |
| 20260504212840 | 21 | 185 | 6.4 | 16.1 | 0.00 | 0.00 | 0.00 | 40 | 1008.7 |
| 20260504212347 | 21 | 186 | 4.8 | 17.7 | 0.00 | 0.00 | 0.00 | 40 | 1008.7 |
| 20260504211850 | 21 | 243 | 3.2 | 19.3 | 0.00 | 0.00 | 0.00 | 42 | 1008.7 |
| 20260504211615 | 21 | 233 | 6.4 | 19.3 | 0.00 | 0.00 | 0.00 | 41 | 1008.6 |
| 20260504211355 | 21 | 202 | 6.4 | 19.3 | 0.00 | 0.00 | 0.00 | 42 | 1008.7 |
| 20260504210901 | 21 | 185 | 1.6 | 17.7 | 0.00 | 0.00 | 0.00 | 42 | 1008.7 |
| 20260504210351 | 21 | 231 | 3.2 | 17.7 | 0.00 | 0.00 | 0.00 | 40 | 1008.8 |
| 20260504210115 | 21 | 201 | 6.4 | 17.7 | 0.00 | 0.00 | 0.00 | 43 | 1008.7 |
| 20260504205911 | 21 | 187 | 6.4 | 17.7 | 0.00 | 0.00 | 0.00 | 40 | 1008.7 |
| 20260504205337 | 21 | 231 | 6.4 | 16.1 | 0.00 | 0.00 | 0.00 | 41 | 1008.9 |
| 20260504204846 | 21 | 154 | 8.0 | 17.7 | 0.00 | 0.00 | 0.00 | 40 | 1008.9 |
| 20260504204623 | 21 | 181 | 6.4 | 17.7 | 0.00 | 0.00 | 0.00 | 40 | 1008.8 |
| 20260504204354 | 21 | 195 | 6.4 | 17.7 | 0.00 | 0.00 | 0.00 | 40 | 1008.9 |
| 20260504203842 | 21 | 179 | 3.2 | 12.9 | 0.00 | 0.00 | 0.00 | 41 | 1009.0 |
| 20260504203352 | 21 | 239 | 8.0 | 22.5 | 0.00 | 0.00 | 0.00 | 41 | 1008.9 |
| 20260504203115 | 21 | 233 | 4.8 | 20.9 | 0.00 | 0.00 | 0.00 | 41 | 1008.9 |
| 20260504202918 | 21 | 199 | 11.3 | 20.9 | 0.00 | 0.00 | 0.00 | 40 | 1009.0 |
| 20260504202344 | 21 | 218 | 6.4 | 20.9 | 0.00 | 0.00 | 0.00 | 40 | 1009.0 |
| 20260504201850 | 21 | 202 | 6.4 | 17.7 | 0.00 | 0.00 | 0.00 | 42 | 1009.2 |
| 20260504201617 | 21 | 233 | 3.2 | 17.7 | 0.00 | 0.00 | 0.00 | 41 | 1009.1 |
| 20260504201342 | 21 | 194 | 8.0 | 19.3 | 0.00 | 0.00 | 0.00 | 40 | 1009.2 |
| 20260504200849 | 21 | 196 | 6.4 | 19.3 | 0.00 | 0.00 | 0.00 | 40 | 1009.3 |
| 20260504200359 | 21 | 254 | 9.7 | 19.3 | 0.00 | 0.00 | 0.00 | 40 | 1009.4 |
| 20260504200115 | 21 | 228 | 8.0 | 19.3 | 0.00 | 0.00 | 0.00 | 42 | 1009.4 |
| 20260504195858 | 21 | 195 | 6.4 | 19.3 | 0.00 | 0.00 | 0.00 | 42 | 1009.4 |
| 20260504195346 | 21 | 202 | 8.0 | 19.3 | 0.00 | 0.00 | 0.00 | 40 | 1009.4 |
| 20260504194850 | 21 | 228 | 3.2 | 20.9 | 0.00 | 0.00 | 0.00 | 40 | 1009.4 |
| 20260504194614 | 21 | 186 | 4.8 | 20.9 | 0.00 | 0.00 | 0.00 | 41 | 1009.4 |
| 20260504194419 | 21 | 197 | 8.0 | 20.9 | 0.00 | 0.00 | 0.00 | 41 | 1009.5 |
| 20260504193842 | 21 | 302 | 9.7 | 20.9 | 0.00 | 0.00 | 0.00 | 39 | 1009.5 |
| 20260504193350 | 21 | 278 | 4.8 | 16.1 | 0.00 | 0.00 | 0.00 | 43 | 1009.7 |
| 20260504193106 | 21 | 249 | 8.0 | 19.3 | 0.00 | 0.00 | 0.00 | 42 | 1009.6 |
| 20260504192851 | 21 | 247 | 3.2 | 19.3 | 0.00 | 0.00 | 0.00 | 39 | 1009.6 |
| 20260504192358 | 21 | 249 | 6.4 | 24.1 | 0.00 | 0.00 | 0.00 | 41 | 1009.7 |
| 20260504191844 | 21 | 192 | 9.7 | 22.5 | 0.00 | 0.00 | 0.00 | 40 | 1009.7 |
| 20260504191606 | 21 | 213 | 8.0 | 22.5 | 0.00 | 0.00 | 0.00 | 39 | 1009.6 |
| 20260504191413 | 21 | 235 | 8.0 | 30.6 | 0.00 | 0.00 | 0.00 | 40 | 1009.6 |
| 20260504190855 | 21 | 242 | 9.7 | 19.3 | 0.00 | 0.00 | 0.00 | 42 | 1009.6 |
| 20260504190341 | 21 | 256 | 526.3 | 526.3 | 0.00 | 0.00 | 0.00 | 41 | 1009.6 |
| 20260504190134 | 20 | 271 | 3.2 | 17.7 | 0.00 | 0.00 | 0.00 | 42 | 1009.7 |
| 20260504185849 | 21 | 232 | 8.0 | 17.7 | 0.00 | 0.00 | 0.00 | 41 | 1009.8 |
| 20260504185354 | 20 | 274 | 8.0 | 24.1 | 0.00 | 0.00 | 0.00 | 42 | 1009.9 |
| 20260504184857 | 20 | 283 | 9.7 | 24.1 | 0.00 | 0.00 | 0.00 | 42 | 1010.1 |
| 20260504184615 | 20 | 181 | 6.4 | 17.7 | 0.00 | 0.00 | 0.00 | 40 | 1010.0 |
| 20260504184337 | 21 | 222 | 9.7 | 17.7 | 0.00 | 0.00 | 0.00 | 41 | 1010.2 |
| 20260504183845 | 21 | 151 | 4.8 | 17.7 | 0.00 | 0.00 | 0.00 | 42 | 1010.1 |
| 20260504183357 | 20 | 241 | 8.0 | 24.1 | 0.00 | 0.00 | 0.00 | 40 | 1010.1 |
| 20260504183111 | 20 | 284 | 8.0 | 24.1 | 0.00 | 0.00 | 0.00 | 43 | 1010.1 |
| 20260504182837 | 20 | 316 | 4.8 | 24.1 | 0.00 | 0.00 | 0.00 | 42 | 1010.3 |
| 20260504182346 | 21 | 219 | 9.7 | 22.5 | 0.00 | 0.00 | 0.00 | 41 | 1010.4 |
| 20260504181914 | 20 | 234 | 3.2 | 11.3 | 0.00 | 0.00 | 0.00 | 43 | 1010.3 |
| 20260504181614 | 20 | 186 | 3.2 | 16.1 | 0.00 | 0.00 | 0.00 | 44 | 1010.3 |
| 20260504181400 | 20 | 196 | 4.8 | 17.7 | 0.00 | 0.00 | 0.00 | 42 | 1010.4 |
| 20260504180840 | 20 | 181 | 8.0 | 19.3 | 0.00 | 0.00 | 0.00 | 42 | 1010.4 |
| 20260504180409 | 20 | 224 | 6.4 | 19.3 | 0.00 | 0.00 | 0.00 | 42 | 1010.5 |
| 20260504180125 | 20 | 195 | 8.0 | 19.3 | 0.00 | 0.00 | 0.00 | 42 | 1010.6 |
| 20260504175847 | 20 | 274 | 6.4 | 24.1 | 0.00 | 0.00 | 0.00 | 41 | 1010.6 |
| 20260504175356 | 20 | 190 | 4.8 | 24.1 | 0.00 | 0.00 | 0.00 | 45 | 1010.7 |
| 20260504174853 | 20 | 199 | 4.8 | 16.1 | 0.00 | 0.00 | 0.00 | 42 | 1010.7 |
| 20260504174618 | 19 | 176 | 4.8 | 17.7 | 0.00 | 0.00 | 0.00 | 43 | 1010.7 |
| 20260504174342 | 20 | 256 | 9.7 | 17.7 | 0.00 | 0.00 | 0.00 | 46 | 1010.8 |
| 20260504173846 | 20 | 184 | 4.8 | 19.3 | 0.00 | 0.00 | 0.00 | 42 | 1010.7 |
| 20260504173354 | 19 | 191 | 4.8 | 25.7 | 0.00 | 0.00 | 0.00 | 46 | 1010.9 |
| 20260504173109 | 19 | 245 | 8.0 | 25.7 | 0.00 | 0.00 | 0.00 | 42 | 1010.9 |
| 20260504172854 | 19 | 270 | 8.0 | 25.7 | 0.00 | 0.00 | 0.00 | 43 | 1011.0 |
| 20260504172400 | 19 | 175 | 3.2 | 19.3 | 0.00 | 0.00 | 0.00 | 47 | 1011.2 |
| 20260504171845 | 19 | 253 | 8.0 | 19.3 | 0.00 | 0.00 | 0.00 | 43 | 1011.3 |